Location: *
(48.7358°N, 0.3111°E)
Time: 15:34:29
(UTC+00:00)

USA 234 - Pass Details

Date: 22 October 2019
Orbit: 1098 x 1109 km, 123.0° (Epoch: 20 November)

Event Time Altitude Azimuth Distance (km) Brightness Sun altitude
Rises 03:33:03 0° 120° (ESE) 3,910 6.7 -29.4°
Reaches altitude 10° 03:35:31 10° 120° (ESE) 2,956 6.0 -29.0°
Maximum altitude 03:42:04 87° 33° (NNE) 1,112 3.2 -28.0°
Enters shadow 03:43:51 53° 306° (NW) 1,342 3.4 -27.7°
